Change the Weather History Date:

Sunday, March 9, 2014

  Actual Average Record
Temperature  
Mean Temperature 32 °F -  
Max Temperature 44 °F 32 °F 51 °F (1990)
Min Temperature 19 °F 14 °F -21 °F (1951)
Degree Days  
Heating Degree Days 34    
Moisture  
Dew Point 27 °F    
Average Humidity 74    
Maximum Humidity 82    
Minimum Humidity 63    
Precipitation  
Precipitation 0.00 in - - ()
Sea Level Pressure  
Sea Level Pressure 29.78 in    
Wind  
Wind Speed 12 mph (SW)    
Max Wind Speed 21 mph    
Max Gust Speed 26 mph    
Visibility 10 miles    
Events      
Averages and records for this station are not official NWS values.
T = Trace of Precipitation, MM = Missing Value Source: NWS Daily Summary

Daily Weather History Graph

Daily Weather History Graph

Search for Another Location

Airport or City:

Trip Planner

Search our weather history database for the weather conditions in past years. The results will help you decide how hot, cold, wet, or windy it might be!

Date:

Astronomy

Mar. 09, 2014 Rise Set
Actual Time 7:45 AM CDT 7:19 PM CDT
Civil Twilight 7:15 AM CDT 7:49 PM CDT
Nautical Twilight 6:41 AM CDT 8:23 PM CDT
Astronomical Twilight 6:06 AM CDT 8:58 PM CDT
Moon 12:59 PM CDT (3/9) 3:25 AM CDT (3/9)
Length of Visible Light 12h 33m
Length of Day
11h 33m
First Quarter, 61% of the Moon is Illuminated
Mar 9
First Quarter
Mar 16
Full
Mar 23
Last Quarter
Mar 30
New
Apr 7
First Quarter

Hourly Weather History & Observations

Time (CDT) Temp. Windchill Dew Point Humidity Pressure Visibility Wind Dir Wind Speed Gust Speed Precip Events Conditions
12:53 AM 19.9 °F 7.9 °F 15.1 °F 81% 30.08 in 10.0 mi SSW 11.5 mph - N/A   Clear
1:53 AM 21.0 °F 9.3 °F 15.1 °F 78% 30.03 in 10.0 mi South 11.5 mph - N/A   Clear
3:53 AM 21.9 °F 8.7 °F 15.1 °F 75% 29.98 in 10.0 mi South 15.0 mph - N/A   Clear
4:53 AM 23.0 °F 10.1 °F 17.1 °F 78% 29.94 in 10.0 mi SSW 15.0 mph - N/A   Clear
5:53 AM 25.0 °F 12.6 °F 18.0 °F 75% 29.90 in 10.0 mi SSW 15.0 mph - N/A   Clear
6:53 AM 27.0 °F 15.6 °F 19.9 °F 75% 29.85 in 10.0 mi South 13.8 mph - N/A   Clear
7:53 AM 32.0 °F 19.8 °F 24.1 °F 73% 29.82 in 10.0 mi SSW 20.7 mph 26.5 mph N/A   Clear
8:53 AM 32.0 °F 20.8 °F 25.0 °F 75% 29.80 in 10.0 mi SW 17.3 mph 25.3 mph N/A   Clear
9:53 AM 33.1 °F 23.0 °F 26.1 °F 75% 29.77 in 10.0 mi SW 15.0 mph - N/A   Partly Cloudy
10:53 AM 35.1 °F 26.4 °F 28.0 °F 76% 29.75 in 10.0 mi SW 12.7 mph - N/A   Clear
11:53 AM 37.0 °F 29.3 °F 30.0 °F 76% 29.74 in 10.0 mi SW 11.5 mph - N/A   Clear
12:53 PM 39.0 °F 32.8 °F 30.9 °F 73% 29.74 in 10.0 mi SW 9.2 mph - N/A   Clear
1:53 PM 39.9 °F 33.4 °F 30.9 °F 70% 29.72 in 10.0 mi SW 10.4 mph - N/A   Clear
2:53 PM 42.1 °F 37.1 °F 32.0 °F 67% 29.70 in 10.0 mi WSW 8.1 mph - N/A   Clear
3:53 PM 44.1 °F 38.6 °F 32.0 °F 63% 29.68 in 10.0 mi West 10.4 mph - N/A   Clear
4:53 PM 44.1 °F 38.6 °F 32.0 °F 63% 29.69 in 10.0 mi West 10.4 mph - N/A   Clear
5:53 PM 43.0 °F 37.7 °F 33.1 °F 68% 29.70 in 10.0 mi West 9.2 mph - N/A   Clear
6:53 PM 42.1 °F 38.4 °F 33.1 °F 70% 29.69 in 10.0 mi West 5.8 mph - N/A   Clear
7:53 PM 41.0 °F 34.7 °F 34.0 °F 76% 29.70 in 10.0 mi WSW 10.4 mph - N/A   Clear
8:53 PM 39.0 °F 32.8 °F 33.1 °F 79% 29.69 in 10.0 mi SW 9.2 mph - N/A   Clear
9:53 PM 39.0 °F 34.0 °F 33.1 °F 79% 29.68 in 10.0 mi SW 6.9 mph - N/A   Clear
10:53 PM 39.0 °F 34.8 °F 33.1 °F 79% 29.67 in 10.0 mi SW 5.8 mph - N/A   Clear
11:53 PM 37.0 °F 31.6 °F 32.0 °F 82% 29.66 in 10.0 mi SW 6.9 mph - N/A   Clear
12:53 AM 37.9 °F 30.5 °F 32.0 °F 79% 29.67 in 10.0 mi WSW 11.5 mph - N/A   Clear